Regional Weather Roundup
Issued by NWS

Home | Current Version | Previous Version | Graphics & Text | Print | Product List | Glossary On
Versions: 1 2 3 4 5 6 7 8 9 10 11 12 13 14 15 16 17 18 19 20 21 22 23 24 25 26 27 28 29 30 31 32 33 34 35 36 37 38 39 40 41 42 43 44 45 46 47 48 49 50
269
ASUS45 KTFX 261610
RWRMT
MONTANA REGIONAL WEATHER ROUNDUP
NATIONAL WEATHER SERVICE GREAT FALLS MT
1000 AM MDT FRI MAY 26 2017

NOTE: "FAIR" INDICATES FEW OR NO CLOUDS BELOW 12000 FEET WITH NO
SIGNIFICANT WEATHER AND/OR OBSTRUCTIONS TO VISIBILITY.

MTZ001>007-043-261700-
WEST OF THE DIVIDE

CITY           SKY/WX    TMP DP  RH WIND       PRES   REMARKS
KALISPELL      SUNNY     54  43  66 NE8       29.95S
MISSOULA       SUNNY     58  38  47 CALM      29.94F
BUTTE          SUNNY     48  29  47 VRB5      29.95F
MULLAN PASS    SUNNY     46  33  60 VRB3      29.98R
ANACONDA         N/A     48  32  53 N3        29.95F
DEER LODGE       N/A     52  36  54 NE3       29.97F
EUREKA           N/A     52  39  62 N3        29.98S
HAMILTON         N/A     54  34  47 CALM      29.94S
PLAINS           N/A     56  42  59 MISG      29.95F
RONAN            N/A     58  41  53 S3        30.00S
$$

MTZ008-052>055-261700-
SOUTHWEST MONTANA

CITY           SKY/WX    TMP DP  RH WIND       PRES   REMARKS
BOZEMAN        SUNNY     51  38  60 N3        29.93F
DILLON         CLOUDY    50  33  52 NE20G25   29.90F
W YELLOWSTONE  CLOUDY    43  28  56 NE6       29.92R
ENNIS          CLOUDY    50  34  53 N20G25    29.95R
THREE FORKS      N/A     51  38  61 CALM      29.94F
TWIN BRIDGES     N/A     50  31  48 N17       29.90F
$$

MTZ009-010-012-014-046-048-049-054-261700-
EAST SLOPES AND CENTRAL MONTANA

CITY           SKY/WX    TMP DP  RH WIND       PRES   REMARKS
CUT BANK       SUNNY     53  36  52 VRB5      29.94S
GREAT FALLS    SUNNY     53  38  56 CALM      29.96S
MALMSTROM AFB  SUNNY     53  37  56 W3        29.95F
HELENA         SUNNY     55  38  52 W3        29.94F
CHOTEAU          N/A     54  36  50 CALM      29.97S
CONRAD           N/A     55  48  77 CALM      29.97S
$$

MTZ011-013-016-021-045-047-050-051-261700-
NORTH CENTRAL MONTANA

CITY           SKY/WX    TMP DP  RH WIND       PRES   REMARKS
HAVRE          MOSUNNY   58  42  55 SW14      29.90F
LEWISTOWN      SUNNY     51  39  63 W8        29.96S
N BAR RANCH      N/A     52  34  50 NW13G21   29.97S
CHINOOK          N/A     55  43  62 W14G21    29.89F
FORT BENTON      N/A     57  39  51 CALM        N/A
$$

MTZ017>020-022>027-061-062-261700-
NORTHEAST MONTANA

CITY           SKY/WX    TMP DP  RH WIND       PRES   REMARKS
GLASGOW        SUNNY     62  38  40 NW17      29.83F
JORDAN           N/A     61  37  41 NW10G22   29.88S
SIDNEY         PTSUNNY   59  39  47 NW25G31   29.80F
WOLF POINT     MOSUNNY   63  36  36 NW14G24   29.82S
MALTA          PTSUNNY   59  43  55 W17       29.86S
PLENTYWOOD       N/A     57  36  44 NW30G37   29.72S
POPLAR           N/A     61  36  39 NW22G30   29.80S
SCOBEY           N/A     56  31  38 W17       29.79R
$$

MTZ028>42-056>058-261700-
SOUTHCENTRAL AND SOUTHEAST MONTANA

CITY           SKY/WX    TMP DP  RH WIND       PRES   REMARKS
BAKER          SUNNY     56  36  47 NW20G30   29.86S
BILLINGS       MOSUNNY   55  37  50 VRB3      29.94S
LIVINGSTON     SUNNY     52  36  54 E8        29.93F
MILES CITY     MOSUNNY   60  36  40 NW15G21   29.88F
BIG TIMBER     SUNNY     50  36  57 NE6       29.97F
EKALAKA          N/A     54  36  50 W16       29.89R
FORSYTH          N/A     55  39  54 W14       29.90F
LAUREL           N/A     54  36  50 NE2       29.94F
ROUNDUP          N/A     59  30  33 NW13      29.85F
$$

REGIONAL REPORTS...DAKOTAS

CITY           SKY/WX    TMP DP  RH WIND       PRES   REMARKS
WILLISTON      CLOUDY    55  41  59 W18G28    29.78R
MINOT          CLOUDY    56  44  64 W24G33    29.70R
DICKINSON      PTSUNNY   58  37  45 NW26G38   29.79R
BEACH            N/A     57  37  47 NW24G36   29.86S
CROSBY         CLOUDY    54  43  66 W26       29.72S
TIOGA          CLOUDY    52  48  87 W18       29.75R
WATFORD CITY   PTSUNNY   55  41  58 W18G26    29.77S
BISMARCK       CLOUDY    57  40  52 NW16G25   29.78R
GRAND FORKS    MOSUNNY   67  50  54 W16       29.64R
FARGO          SUNNY     68  49  50 W10G20    29.68R
BUFFALO SD       N/A     58  36  43 W23G33    29.82R
RAPID CITY     SUNNY     62  34  35 N10       29.91S
$$

REGIONAL REPORTS...WYOMING/IDAHO/WASHINGTON

CITY           SKY/WX    TMP DP  RH WIND       PRES   REMARKS
GILLETTE       SUNNY     56  34  43 NW8       29.93F
SHERIDAN       SUNNY     56  38  50 NW10      29.94S
BUFFALO WY     CLOUDY    52  31  44 N5        29.95F
CODY           CLOUDY    49  31  49 NE8       29.95S
YELLOWSTONE LA   N/A     39  29  67 E6        29.94R
IDAHO FALLS    LGT RAIN  45  41  86 N5        29.85S
SALMON         PTSUNNY   52  41  66 NW3       29.89S
BOISE          SUNNY     55  43  63 NW7       29.88S
SPOKANE        MOSUNNY   58  42  55 NE5       29.95R
$$

REGIONAL REPORTS...ALBERTA

CITY           SKY/WX    TMP DP  RH WIND       PRES   REMARKS
EDMONTON       PTSUNNY   57  45  62 W7        29.77F
CALGARY        MOSUNNY   59  30  33 W10       29.88F
LETHBRIDGE     MOSUNNY   57  39  51 W12       29.90F
MEDICINE HAT   MOSUNNY   59  41  51 SW9       29.86S
WATERTON GATE    N/A     54  37  54 S9          N/A
MILK RIVER       N/A     59  39  47 W9          N/A
ONEFOUR          N/A     55  39  54 W13         N/A
$$

REGIONAL REPORTS...SASKATCHEWAN

CITY           SKY/WX    TMP DP  RH WIND       PRES   REMARKS
SWIFT CURRENT  MOSUNNY   55  41  58 W17G23    29.78R
REGINA         MOSUNNY   55  41  58 NW31G38   29.67S
SASKATOON      MOSUNNY   57  43  58 W20G29    29.67S
CYPRESS HILLS    N/A     52  36  54 NW8         N/A
VAL MARIE        N/A     61  34  36 NW17G23     N/A
ROCKGLEN         N/A     55  39  54 NW18G26     N/A
ASSINIBOIA       N/A     61  43  51 NW7         N/A
$$




USA.gov is the U.S. government's official web portal to all federal, state and local government web resources and services.